Regional Weather Roundup
Issued by NWS Cleveland, OH

Home | Current Version | Previous Version | Graphics & Text | Print | Product List | Glossary On
Versions: 1 2 3 4 5 6 7 8 9 10 11 12 13 14 15 16 17 18 19 20 21 22 23 24 25 26 27 28 29 30 31 32 33 34 35 36 37 38 39 40 41 42 43 44 45 46 47 48 49 50
000
ASUS41 KCLE 131310
RWRCLE
OHIO REGIONAL WEATHER ROUNDUP
NATIONAL WEATHER SERVICE CLEVELAND, OH
900 AM EDT SUN JUL 13 2014

NOTE: "FAIR" INDICATES FEW OR NO CLOUDS BELOW 12,000 FEET WITH NO
SIGNIFICANT WEATHER AND/OR OBSTRUCTIONS TO VISIBILITY.

OHZ001>008-015>018-024>027-034-035-043-044-131400-
   NORTHWEST OHIO

CITY           SKY/WX    TMP DP  RH WIND       PRES   REMARKS
DEFIANCE       PTSUNNY   76  69  79 VRB7      29.90R
FINDLAY        CLOUDY    79  71  76 SW14G22   29.90R
TOLEDO EXPRESS CLOUDY    74  70  87 W13       29.86R
TOLEDO EXEC    CLOUDY    77  71  82 W21G28    29.87R
LIMA           CLOUDY    78  70  76 W18G25    29.94R
$$

OHZ009>014-019>023-028>033-038-089-131400-
   NORTHEAST OHIO

CITY           SKY/WX    TMP DP  RH WIND       PRES   REMARKS
CLE-HOPKINS    LGT RAIN  73  69  87 S10       29.91R FOG
CLE-LAKEFRONT  CLOUDY    74  70  87 S15       29.87S
CUY CO. ARPT   LGT RAIN  77  72  83 SW12      29.90F
LORAIN-ELYRIA  CLOUDY    78  71  79 SW14      29.90S
ASHTABULA      LGT RAIN  71  67  87 S14G26    29.89F FOG
AKRON-CANTON   CLOUDY    76  66  71 SW12      29.95R
WOOSTER        CLOUDY    77  68  73 SW12      29.96R
MANSFIELD      PTSUNNY   77  69  76 SW15G28   29.96R
YOUNGSTOWN     CLOUDY    73  67  81 SW6       29.94S
$$

OHZ042-051>053-060>062-070>072-077>081-131400-
  SOUTHWEST OHIO

CITY           SKY/WX    TMP DP  RH WIND       PRES   REMARKS
CINC-COVINGTON CLOUDY    78  69  73 SW9       30.02R
CINC-LUNKEN    CLOUDY    78  70  76 S10       30.00S
HAMILTON       CLOUDY    79  71  76 SW8       30.00R
DAYTON         CLOUDY    78  70  76 SW13      29.98S
WRIGHT-PAT AFB CLOUDY    78  70  76 SW14      29.97S
DAYTON GENERAL CLOUDY    78  70  76 SW12      29.99R
WILMINGTON     CLOUDY    76  68  76 SW10      30.01R
$$

OHZ036-037-039>041-045>050-054>059-063>069-073>076-082>088-131400-
  CENTRAL AND SOUTHEAST OHIO

CITY           SKY/WX    TMP DP  RH WIND       PRES   REMARKS
COLUMBUS       CLOUDY    80  68  66 SW9       29.97R
OSU AIRPORT    CLOUDY    78  68  71 SW12G21   29.97R
BOLTON FIELD   PTSUNNY   77  70  78 SW13G21   29.98R
RICKENBACK AFB CLOUDY    81  65  57 SW10G18   29.97R
NEWARK         PTSUNNY   78  68  71 SW8       29.97S
MARION         CLOUDY    78  70  76 SW9       29.95R HAZE
LANCASTER      CLOUDY    78  68  71 SW13      29.99R
ZANESVILLE     PTSUNNY   76  66  71 SW9       29.99S
NEW PHILLY     PTSUNNY   76  67  73 VRB7      29.98R
$$


USA.gov is the U.S. government's official web portal to all federal, state and local government web resources and services.